EN

Hourly Weather La Chapelle-sur-Erdre

Today, 25 July, Sunday

Time Temperature Precipitation Wind Pressure Humidity
00:00 +17°C° 0 mm 4 mps 753 mmHg 95%
01:00 +17°C° 0 mm 4 mps 753 mmHg 96%
02:00 +16°C° 0 mm 3 mps 752 mmHg 96%
03:00 +16°C° 0 mm 3 mps 752 mmHg 97%
04:00 +16°C° 0 mm 3 mps 753 mmHg 96%
05:00 +16°C° 0 mm 3 mps 753 mmHg 95%
06:00 +16°C° 0 mm 3 mps 753 mmHg 94%
07:00 +17°C° 0 mm 4 mps 753 mmHg 87%
08:00 +19°C° 0 mm 4 mps 754 mmHg 80%
09:00 +20°C° 0 mm 5 mps 754 mmHg 73%
10:00 +22°C° 0.2 mm 5 mps 754 mmHg 66%
11:00 +23°C° 0.2 mm 6 mps 754 mmHg 59%
12:00 +26°C° 0.2 mm 6 mps 754 mmHg 53%
13:00 +24°C° 0.3 mm 6 mps 754 mmHg 54%
14:00 +24°C° 0.3 mm 6 mps 754 mmHg 56%
15:00 +24°C° 0.3 mm 6 mps 754 mmHg 57%
16:00 +23°C° 0.3 mm 6 mps 754 mmHg 62%
17:00 +22°C° 0.3 mm 5 mps 754 mmHg 68%
18:00 +21°C° 0.3 mm 5 mps 755 mmHg 73%
19:00 +20°C° 0.2 mm 4 mps 755 mmHg 80%
20:00 +19°C° 0.2 mm 3 mps 755 mmHg 87%
21:00 +17°C° 0.2 mm 3 mps 756 mmHg 94%
22:00 +17°C° 0 mm 2 mps 756 mmHg 94%
23:00 +16°C° 0 mm 2 mps 756 mmHg 95%

Tomorrow, 26 July, Monday

Time Temperature Precipitation Wind Pressure Humidity
00:00 +16°C° 0 mm 2 mps 756 mmHg 96%
01:00 +15°C° 0 mm 2 mps 756 mmHg 96%
02:00 +15°C° 0 mm 2 mps 756 mmHg 96%
03:00 +15°C° 0 mm 2 mps 756 mmHg 95%
04:00 +15°C° 0 mm 1 mps 757 mmHg 94%
05:00 +16°C° 0 mm 1 mps 757 mmHg 92%
06:00 +16°C° 0 mm 1 mps 757 mmHg 90%
07:00 +18°C° 0 mm 2 mps 757 mmHg 82%
08:00 +20°C° 0 mm 2 mps 758 mmHg 73%
09:00 +22°C° 0 mm 3 mps 758 mmHg 64%
10:00 +23°C° 0 mm 4 mps 758 mmHg 59%
11:00 +26°C° 0 mm 5 mps 758 mmHg 53%
12:00 +27°C° 0 mm 5 mps 757 mmHg 48%
13:00 +27°C° 0 mm 6 mps 757 mmHg 48%
14:00 +26°C° 0 mm 6 mps 757 mmHg 49%
15:00 +26°C° 0 mm 7 mps 757 mmHg 50%
16:00 +24°C° 0 mm 6 mps 757 mmHg 54%
17:00 +23°C° 0 mm 6 mps 757 mmHg 58%
18:00 +22°C° 0 mm 5 mps 757 mmHg 62%
19:00 +21°C° 0 mm 5 mps 758 mmHg 70%
20:00 +19°C° 0 mm 4 mps 758 mmHg 77%
21:00 +18°C° 0 mm 3 mps 758 mmHg 85%
22:00 +18°C° 0 mm 3 mps 758 mmHg 88%
23:00 +18°C° 0 mm 3 mps 758 mmHg 91%

Day after tomorrow, 27 July, Tuesday

Time Temperature Precipitation Wind Pressure Humidity
00:00 +18°C° 0 mm 3 mps 758 mmHg 95%
01:00 +17°C° 0.2 mm 2 mps 757 mmHg 95%
02:00 +17°C° 0.2 mm 2 mps 757 mmHg 95%
03:00 +17°C° 0.2 mm 2 mps 757 mmHg 94%
04:00 +18°C° 0.1 mm 2 mps 757 mmHg 93%
05:00 +18°C° 0.1 mm 2 mps 757 mmHg 91%
06:00 +18°C° 0.1 mm 2 mps 757 mmHg 89%
07:00 +19°C° 0 mm 3 mps 757 mmHg 82%
08:00 +21°C° 0 mm 3 mps 757 mmHg 75%
09:00 +22°C° 0 mm 4 mps 757 mmHg 68%
10:00 +22°C° 0 mm 4 mps 757 mmHg 65%
11:00 +22°C° 0 mm 5 mps 757 mmHg 62%
12:00 +23°C° 0 mm 5 mps 757 mmHg 59%
13:00 +23°C° 0.2 mm 6 mps 757 mmHg 60%
14:00 +23°C° 0.2 mm 6 mps 757 mmHg 61%
15:00 +23°C° 0.2 mm 7 mps 757 mmHg 62%
16:00 +22°C° 0.4 mm 6 mps 757 mmHg 66%
17:00 +21°C° 0.4 mm 6 mps 757 mmHg 71%
18:00 +20°C° 0.4 mm 5 mps 757 mmHg 75%
19:00 +19°C° 0 mm 4 mps 757 mmHg 81%
20:00 +18°C° 0 mm 3 mps 757 mmHg 87%
21:00 +16°C° 0 mm 3 mps 758 mmHg 93%
22:00 +16°C° 0 mm 2 mps 758 mmHg 93%
23:00 +15°C° 0 mm 2 mps 758 mmHg 93%

28 July, Wednesday

Time Temperature Precipitation Wind Pressure Humidity
00:00 +15°C° 0 mm 2 mps 758 mmHg 93%
01:00 +15°C° 0 mm 2 mps 758 mmHg 93%
02:00 +14°C° 0 mm 2 mps 757 mmHg 93%
03:00 +14°C° 0 mm 2 mps 757 mmHg 93%
04:00 +15°C° 0 mm 2 mps 757 mmHg 91%
05:00 +15°C° 0 mm 1 mps 757 mmHg 89%
06:00 +16°C° 0 mm 1 mps 757 mmHg 88%
07:00 +17°C° 0 mm 2 mps 757 mmHg 80%
08:00 +19°C° 0 mm 3 mps 757 mmHg 72%
09:00 +21°C° 0 mm 4 mps 757 mmHg 64%
10:00 +22°C° 0.1 mm 5 mps 757 mmHg 60%
11:00 +23°C° 0.1 mm 5 mps 757 mmHg 56%
12:00 +24°C° 0.1 mm 6 mps 757 mmHg 52%
13:00 +24°C° 0 mm 6 mps 757 mmHg 51%
14:00 +24°C° 0 mm 6 mps 757 mmHg 50%
15:00 +24°C° 0 mm 7 mps 757 mmHg 49%
16:00 +23°C° 0 mm 6 mps 757 mmHg 53%
17:00 +22°C° 0 mm 6 mps 757 mmHg 57%
18:00 +21°C° 0 mm 6 mps 757 mmHg 61%
19:00 +19°C° 0 mm 5 mps 757 mmHg 71%
20:00 +18°C° 0 mm 4 mps 757 mmHg 81%
21:00 +16°C° 0 mm 3 mps 757 mmHg 92%
22:00 +14°C° 0 mm 3 mps 757 mmHg 91%
23:00 +14°C° 0 mm 3 mps 757 mmHg 91%

29 July, Thursday

Time Temperature Precipitation Wind Pressure Humidity
00:00 +14°C° 0 mm 3 mps 757 mmHg 90%
01:00 +13°C° 0 mm 3 mps 757 mmHg 90%
02:00 +13°C° 0 mm 3 mps 757 mmHg 90%
03:00 +14°C° 0 mm 2 mps 758 mmHg 90%
04:00 +14°C° 0 mm 2 mps 758 mmHg 88%
05:00 +15°C° 0 mm 2 mps 758 mmHg 87%
06:00 +15°C° 0 mm 2 mps 758 mmHg 85%
07:00 +17°C° 0 mm 2 mps 759 mmHg 74%
08:00 +19°C° 0 mm 3 mps 759 mmHg 63%
09:00 +21°C° 0 mm 3 mps 759 mmHg 53%
10:00 +22°C° 0 mm 3 mps 759 mmHg 47%
11:00 +23°C° 0 mm 4 mps 759 mmHg 42%
12:00 +25°C° 0 mm 4 mps 759 mmHg 37%
13:00 +25°C° 0 mm 5 mps 759 mmHg 37%
14:00 +25°C° 0 mm 5 mps 759 mmHg 37%
15:00 +25°C° 0 mm 5 mps 759 mmHg 37%
16:00 +23°C° 0 mm 5 mps 759 mmHg 41%
17:00 +22°C° 0 mm 5 mps 759 mmHg 45%
18:00 +21°C° 0 mm 5 mps 759 mmHg 49%
19:00 +19°C° 0 mm 4 mps 759 mmHg 56%
20:00 +18°C° 0 mm 4 mps 759 mmHg 62%
21:00 +17°C° 0 mm 3 mps 759 mmHg 69%
22:00 +16°C° 0 mm 3 mps 759 mmHg 70%
23:00 +16°C° 0 mm 3 mps 759 mmHg 71%

30 July, Friday

Time Temperature Precipitation Wind Pressure Humidity
00:00 +16°C° 0 mm 2 mps 759 mmHg 72%
01:00 +15°C° 0 mm 2 mps 759 mmHg 74%
02:00 +15°C° 0 mm 2 mps 759 mmHg 76%
03:00 +15°C° 0 mm 2 mps 759 mmHg 78%
04:00 +15°C° 0 mm 2 mps 759 mmHg 79%
05:00 +15°C° 0 mm 2 mps 759 mmHg 81%
06:00 +14°C° 0 mm 1 mps 759 mmHg 82%
07:00 +17°C° 0 mm 2 mps 760 mmHg 72%
08:00 +19°C° 0 mm 3 mps 760 mmHg 62%
09:00 +21°C° 0 mm 3 mps 760 mmHg 53%
10:00 +22°C° 0 mm 4 mps 760 mmHg 48%
11:00 +23°C° 0 mm 4 mps 759 mmHg 43%
12:00 +26°C° 0 mm 5 mps 759 mmHg 39%
13:00 +25°C° 0 mm 5 mps 759 mmHg 40%
14:00 +24°C° 0 mm 6 mps 759 mmHg 41%
15:00 +24°C° 0 mm 6 mps 759 mmHg 41%
16:00 +23°C° 0 mm 6 mps 759 mmHg 46%
17:00 +22°C° 0 mm 5 mps 759 mmHg 50%
18:00 +21°C° 0 mm 5 mps 760 mmHg 55%
19:00 +19°C° 0 mm 4 mps 760 mmHg 65%
20:00 +17°C° 0 mm 3 mps 760 mmHg 76%
21:00 +14°C° 0 mm 3 mps 760 mmHg 86%
22:00 +14°C° 0 mm 3 mps 760 mmHg 88%
23:00 +14°C° 0 mm 2 mps 760 mmHg 90%
Show more